Simultaneous Nadir Overpasses (SNOs) Predictions

Prediction of SNOs between GOES-16 and NOAA-20 Satellite Orbit:

Table of predicted SNOs for the next 14.0 days since TLE Epoch: 4/15/2023
Index Date Time (GOES-16) GOES-16 Lat,Lon NOAA-20 Lat,Lon Distance(km) Time Diff (sec)
1 04/16/2023 06:33:08 -0.03, -75.22 0.24, -76.53 148.71 80
2 04/17/2023 06:11:43 -0.03, -75.23 -0.75, -71.99 368.63 80
3 04/18/2023 18:36:21 0.03, -75.25 -0.43, -77.30 233.20 80
4 04/19/2023 18:14:57 0.03, -75.27 0.62, -72.77 284.66 80
5 04/21/2023 06:39:25 -0.03, -75.29 0.58, -78.04 313.63 80
6 04/22/2023 06:18:01 -0.03, -75.30 -0.41, -73.50 204.40 80
7 04/23/2023 18:42:38 0.03, -75.33 -0.76, -78.81 396.70 80
8 04/24/2023 18:21:14 0.03, -75.35 0.24, -74.28 121.77 80
9 04/26/2023 06:45:43 -0.02, -75.38 0.90, -79.55 475.45 80
10 04/27/2023 06:24:19 -0.02, -75.40 -0.10, -75.02 43.28 80
